Year,Month,Day,Hour,Minute,Value (Times are PST for temperature in C)
2009,05,24,00,00,9.70
2009,05,24,00,01,9.70
2009,05,24,00,02,9.70
2009,05,24,00,03,9.80
2009,05,24,00,04,9.80
2009,05,24,00,05,9.80
2009,05,24,00,06,9.80
2009,05,24,00,07,9.80
2009,05,24,00,08,9.80
2009,05,24,00,09,9.90
2009,05,24,00,10,9.90
2009,05,24,00,11,9.90
2009,05,24,00,12,9.90
2009,05,24,00,13,9.90
2009,05,24,00,14,9.90
2009,05,24,00,15,9.90
2009,05,24,00,16,9.90
2009,05,24,00,17,9.90
2009,05,24,00,18,9.90
2009,05,24,00,19,9.90
2009,05,24,00,20,9.90
2009,05,24,00,21,9.90
2009,05,24,00,22,10.10
2009,05,24,00,23,10.10
2009,05,24,00,24,10.10
2009,05,24,00,25,10.10
2009,05,24,00,26,10.10
2009,05,24,00,27,10.10
2009,05,24,00,28,10.10
2009,05,24,00,29,10.10
2009,05,24,00,30,10.10
2009,05,24,00,31,10.10
2009,05,24,00,32,10.10
2009,05,24,00,33,10.10
2009,05,24,00,34,10.10
2009,05,24,00,35,10.10
2009,05,24,00,36,10.10
2009,05,24,00,37,10.00
2009,05,24,00,38,9.90
2009,05,24,00,39,9.90
2009,05,24,00,40,9.90
2009,05,24,00,41,9.90
2009,05,24,00,42,9.90
2009,05,24,00,43,9.90
2009,05,24,00,44,9.90
2009,05,24,00,45,9.80
2009,05,24,00,46,9.80
2009,05,24,00,47,9.80
2009,05,24,00,48,9.80
2009,05,24,00,49,9.80
2009,05,24,00,50,9.80
2009,05,24,00,51,9.80
2009,05,24,00,52,9.70
2009,05,24,00,53,9.70
2009,05,24,00,54,9.70
2009,05,24,00,55,9.70
2009,05,24,00,56,9.70
2009,05,24,00,57,9.70
2009,05,24,00,58,9.70
2009,05,24,00,59,9.70
2009,05,24,01,00,9.70
2009,05,24,01,01,9.70
2009,05,24,01,02,9.70
2009,05,24,01,03,9.70
2009,05,24,01,04,9.70
2009,05,24,01,05,9.70
2009,05,24,01,06,9.70
2009,05,24,01,07,9.70
2009,05,24,01,08,9.70
2009,05,24,01,09,9.70
2009,05,24,01,10,9.70
2009,05,24,01,11,9.70
2009,05,24,01,12,9.70
2009,05,24,01,13,9.70
2009,05,24,01,14,9.70
2009,05,24,01,15,9.70
2009,05,24,01,16,9.60
2009,05,24,01,17,9.60
2009,05,24,01,18,9.60
2009,05,24,01,19,9.60
2009,05,24,01,20,9.60
2009,05,24,01,21,9.60
2009,05,24,01,22,9.50
2009,05,24,01,23,9.50
2009,05,24,01,24,9.50
2009,05,24,01,25,9.50
2009,05,24,01,26,9.50
2009,05,24,01,27,9.50
2009,05,24,01,28,9.50
2009,05,24,01,29,9.50
2009,05,24,01,30,9.50
2009,05,24,01,31,9.50
2009,05,24,01,32,9.50
2009,05,24,01,33,9.50
2009,05,24,01,34,9.50
2009,05,24,01,35,9.40
2009,05,24,01,36,9.40
2009,05,24,01,37,9.40
2009,05,24,01,38,9.40
2009,05,24,01,39,9.40
2009,05,24,01,40,9.40
2009,05,24,01,41,9.30
2009,05,24,01,42,9.30
2009,05,24,01,43,9.30
2009,05,24,01,44,9.30
2009,05,24,01,45,9.20
2009,05,24,01,46,9.20
2009,05,24,01,47,9.20
2009,05,24,01,48,9.20
2009,05,24,01,49,9.20
2009,05,24,01,50,9.20
2009,05,24,01,51,9.10
2009,05,24,01,52,9.10
2009,05,24,01,53,9.10
2009,05,24,01,54,9.00
2009,05,24,01,55,9.00
2009,05,24,01,56,8.90
2009,05,24,01,57,8.90
2009,05,24,01,58,8.80
2009,05,24,01,59,8.80
2009,05,24,02,00,8.70
2009,05,24,02,01,8.70
2009,05,24,02,02,8.70
2009,05,24,02,03,8.70
2009,05,24,02,04,8.60
2009,05,24,02,05,8.60
2009,05,24,02,06,8.50
2009,05,24,02,07,8.50
2009,05,24,02,08,8.40
2009,05,24,02,09,8.40
2009,05,24,02,10,8.40
2009,05,24,02,11,8.30
2009,05,24,02,12,8.30
2009,05,24,02,13,8.30
2009,05,24,02,14,8.30
2009,05,24,02,15,8.20
2009,05,24,02,16,8.20
2009,05,24,02,17,8.20
2009,05,24,02,18,8.20
2009,05,24,02,19,8.20
2009,05,24,02,20,8.20
2009,05,24,02,21,8.20
2009,05,24,02,22,8.20
2009,05,24,02,23,8.20
2009,05,24,02,24,8.20
2009,05,24,02,25,8.20
2009,05,24,02,26,8.20
2009,05,24,02,27,8.20
2009,05,24,02,28,8.20
2009,05,24,02,29,8.20
2009,05,24,02,30,8.20
2009,05,24,02,31,8.20
2009,05,24,02,32,8.20
2009,05,24,02,33,8.20
2009,05,24,02,34,8.20
2009,05,24,02,35,8.20
2009,05,24,02,36,8.20
2009,05,24,02,37,8.20
2009,05,24,02,38,8.20
2009,05,24,02,39,8.20
2009,05,24,02,40,8.20
2009,05,24,02,41,8.20
2009,05,24,02,42,8.20
2009,05,24,02,43,8.20
2009,05,24,02,44,8.20
2009,05,24,02,45,8.20
2009,05,24,02,46,8.20
2009,05,24,02,47,8.20
2009,05,24,02,48,8.20
2009,05,24,02,49,8.20
2009,05,24,02,50,8.20
2009,05,24,02,51,8.20
2009,05,24,02,52,8.20
2009,05,24,02,53,8.20
2009,05,24,02,54,8.20
2009,05,24,02,55,8.30
2009,05,24,02,56,8.30
2009,05,24,02,57,8.30
2009,05,24,02,58,8.30
2009,05,24,02,59,8.40
2009,05,24,03,00,8.40
2009,05,24,03,01,8.40
2009,05,24,03,02,8.40
2009,05,24,03,03,8.40
2009,05,24,03,04,8.40
2009,05,24,03,05,8.40
2009,05,24,03,06,8.50
2009,05,24,03,07,8.50
2009,05,24,03,08,8.50
2009,05,24,03,09,8.50
2009,05,24,03,10,8.50
2009,05,24,03,11,8.50
2009,05,24,03,12,8.50
2009,05,24,03,13,8.40
2009,05,24,03,14,8.40
2009,05,24,03,15,8.40
2009,05,24,03,16,8.40
2009,05,24,03,17,8.40
2009,05,24,03,18,8.30
2009,05,24,03,19,8.30
2009,05,24,03,20,8.30
2009,05,24,03,21,8.30
2009,05,24,03,22,8.20
2009,05,24,03,23,8.20
2009,05,24,03,24,8.20
2009,05,24,03,25,8.20
2009,05,24,03,26,8.20
2009,05,24,03,27,8.20
2009,05,24,03,28,8.10
2009,05,24,03,29,8.10
2009,05,24,03,30,8.00
2009,05,24,03,31,8.00
2009,05,24,03,32,8.00
2009,05,24,03,33,7.90
2009,05,24,03,34,7.90
2009,05,24,03,35,7.80
2009,05,24,03,36,7.80
2009,05,24,03,37,7.80
2009,05,24,03,38,7.80
2009,05,24,03,39,7.70
2009,05,24,03,40,7.70
2009,05,24,03,41,7.70
2009,05,24,03,42,7.60
2009,05,24,03,43,7.60
2009,05,24,03,44,7.60
2009,05,24,03,45,7.50
2009,05,24,03,46,7.50
2009,05,24,03,47,7.50
2009,05,24,03,48,7.50
2009,05,24,03,49,7.40
2009,05,24,03,50,7.40
2009,05,24,03,51,7.40
2009,05,24,03,52,7.40
2009,05,24,03,53,7.40
2009,05,24,03,54,7.40
2009,05,24,03,55,7.30
2009,05,24,03,56,7.40
2009,05,24,03,57,7.40
2009,05,24,03,58,7.40
2009,05,24,03,59,7.40
2009,05,24,04,00,7.40
2009,05,24,04,01,7.40
2009,05,24,04,02,7.40
2009,05,24,04,03,7.40
2009,05,24,04,04,7.40
2009,05,24,04,05,7.40
2009,05,24,04,06,7.40
2009,05,24,04,07,7.40
2009,05,24,04,08,7.40
2009,05,24,04,09,7.40
2009,05,24,04,10,7.40
2009,05,24,04,11,7.40
2009,05,24,04,12,7.40
2009,05,24,04,13,7.40
2009,05,24,04,14,7.40
2009,05,24,04,15,7.40
2009,05,24,04,16,7.40
2009,05,24,04,17,7.40
2009,05,24,04,18,7.40
2009,05,24,04,19,7.40
2009,05,24,04,20,7.40
2009,05,24,04,21,7.40
2009,05,24,04,22,7.40
2009,05,24,04,23,7.40
2009,05,24,04,24,7.40
2009,05,24,04,25,7.40
2009,05,24,04,26,7.40
2009,05,24,04,27,7.40
2009,05,24,04,28,7.40
2009,05,24,04,29,7.40
2009,05,24,04,30,7.40
2009,05,24,04,31,7.40
2009,05,24,04,32,7.40
2009,05,24,04,33,7.40
2009,05,24,04,34,7.40
2009,05,24,04,35,7.40
2009,05,24,04,36,7.30
2009,05,24,04,37,7.30
2009,05,24,04,38,7.30
2009,05,24,04,39,7.30
2009,05,24,04,40,7.30
2009,05,24,04,41,7.30
2009,05,24,04,42,7.30
2009,05,24,04,43,7.20
2009,05,24,04,44,7.20
2009,05,24,04,45,7.20
2009,05,24,04,46,7.20
2009,05,24,04,47,7.10
2009,05,24,04,48,7.10
2009,05,24,04,49,7.10
2009,05,24,04,50,7.00
2009,05,24,04,51,7.00
2009,05,24,04,52,7.00
2009,05,24,04,53,7.00
2009,05,24,04,54,7.00
2009,05,24,04,55,6.90
2009,05,24,04,56,6.90
2009,05,24,04,57,6.90
2009,05,24,04,58,6.90
2009,05,24,04,59,6.90
2009,05,24,05,00,6.90
2009,05,24,05,01,6.90
2009,05,24,05,02,6.90
2009,05,24,05,03,7.00
2009,05,24,05,04,7.00
2009,05,24,05,05,7.00
2009,05,24,05,06,7.00
2009,05,24,05,07,7.00
2009,05,24,05,08,7.00
2009,05,24,05,09,7.00
2009,05,24,05,10,7.00
2009,05,24,05,11,7.00
2009,05,24,05,12,7.00
2009,05,24,05,13,7.00
2009,05,24,05,14,7.00
2009,05,24,05,15,7.00
2009,05,24,05,16,7.00
2009,05,24,05,17,7.00
2009,05,24,05,18,7.10
2009,05,24,05,19,7.10
2009,05,24,05,20,7.10
2009,05,24,05,21,7.10
2009,05,24,05,22,7.10
2009,05,24,05,23,7.10
2009,05,24,05,24,7.10
2009,05,24,05,25,7.10
2009,05,24,05,26,7.10
2009,05,24,05,27,7.20
2009,05,24,05,28,7.20
2009,05,24,05,29,7.20
2009,05,24,05,30,7.20
2009,05,24,05,31,7.20
2009,05,24,05,32,7.20
2009,05,24,05,33,7.30
2009,05,24,05,34,7.30
2009,05,24,05,35,7.30
2009,05,24,05,36,7.30
2009,05,24,05,37,7.30
2009,05,24,05,38,7.30
2009,05,24,05,39,7.30
2009,05,24,05,40,7.30
2009,05,24,05,41,7.30
2009,05,24,05,42,7.20
2009,05,24,05,43,7.20
2009,05,24,05,44,7.20
2009,05,24,05,45,7.10
2009,05,24,05,46,7.10
2009,05,24,05,47,7.10
2009,05,24,05,48,7.00
2009,05,24,05,49,7.00
2009,05,24,05,50,7.00
2009,05,24,05,51,7.00
2009,05,24,05,52,7.00
2009,05,24,05,53,7.00
2009,05,24,05,54,7.00
2009,05,24,05,55,7.00
2009,05,24,05,56,6.90
2009,05,24,05,57,6.90
2009,05,24,05,58,6.90
2009,05,24,05,59,6.90
2009,05,24,06,00,6.90
2009,05,24,06,01,6.90
2009,05,24,06,02,7.00
2009,05,24,06,03,7.00
2009,05,24,06,04,7.00
2009,05,24,06,05,7.00
2009,05,24,06,06,7.00
2009,05,24,06,07,7.00
2009,05,24,06,08,7.00
2009,05,24,06,09,7.00
2009,05,24,06,10,7.00
2009,05,24,06,11,7.00
2009,05,24,06,12,7.00
2009,05,24,06,13,7.00
2009,05,24,06,14,7.00
2009,05,24,06,15,7.00
2009,05,24,06,16,7.00
2009,05,24,06,17,7.00
2009,05,24,06,18,7.00
2009,05,24,06,19,7.00
2009,05,24,06,20,7.00
2009,05,24,06,21,7.00
2009,05,24,06,22,7.00
2009,05,24,06,23,7.00
2009,05,24,06,24,7.00
2009,05,24,06,25,7.00
2009,05,24,06,26,7.00
2009,05,24,06,27,7.00
2009,05,24,06,28,7.00
2009,05,24,06,29,7.00
2009,05,24,06,30,7.00
2009,05,24,06,31,7.10
2009,05,24,06,32,7.10
2009,05,24,06,33,7.10
2009,05,24,06,34,7.10
2009,05,24,06,35,7.20
2009,05,24,06,36,7.20
2009,05,24,06,37,7.20
2009,05,24,06,38,7.30
2009,05,24,06,39,7.30
2009,05,24,06,40,7.30
2009,05,24,06,41,7.40
2009,05,24,06,42,7.40
2009,05,24,06,43,7.50
2009,05,24,06,44,7.50
2009,05,24,06,45,7.50
2009,05,24,06,46,7.60
2009,05,24,06,47,7.60
2009,05,24,06,48,7.60
2009,05,24,06,49,7.70
2009,05,24,06,50,7.70
2009,05,24,06,51,7.70
2009,05,24,06,52,7.70
2009,05,24,06,53,7.80
2009,05,24,06,54,7.80
2009,05,24,06,55,7.80
2009,05,24,06,56,7.80
2009,05,24,06,57,7.90
2009,05,24,06,58,7.90
2009,05,24,06,59,8.00
2009,05,24,07,00,8.10
2009,05,24,07,01,8.10
2009,05,24,07,02,8.20
2009,05,24,07,03,8.20
2009,05,24,07,04,8.30
2009,05,24,07,05,8.40
2009,05,24,07,06,8.40
2009,05,24,07,07,8.50
2009,05,24,07,08,8.50
2009,05,24,07,09,8.60
2009,05,24,07,10,8.70
2009,05,24,07,11,8.70
2009,05,24,07,12,8.80
2009,05,24,07,13,8.90
2009,05,24,07,14,9.00
2009,05,24,07,15,9.00
2009,05,24,07,16,9.10
2009,05,24,07,17,9.20
2009,05,24,07,18,9.30
2009,05,24,07,19,9.40
2009,05,24,07,20,9.50
2009,05,24,07,21,9.60
2009,05,24,07,22,9.70
2009,05,24,07,23,9.90
2009,05,24,07,24,10.00
2009,05,24,07,25,10.20
2009,05,24,07,26,10.30
2009,05,24,07,27,10.40
2009,05,24,07,28,10.50
2009,05,24,07,29,10.60
2009,05,24,07,30,10.70
2009,05,24,07,31,10.80
2009,05,24,07,32,10.90
2009,05,24,07,33,10.90
2009,05,24,07,34,11.10
2009,05,24,07,35,11.20
2009,05,24,07,36,11.30
2009,05,24,07,37,11.40
2009,05,24,07,38,11.50
2009,05,24,07,39,11.60
2009,05,24,07,40,11.70
2009,05,24,07,41,11.80
2009,05,24,07,42,11.80
2009,05,24,07,43,11.90
2009,05,24,07,44,11.90
2009,05,24,07,45,12.00
2009,05,24,07,46,12.00
2009,05,24,07,47,12.10
2009,05,24,07,48,12.10
2009,05,24,07,49,12.10
2009,05,24,07,50,12.10
2009,05,24,07,51,12.10
2009,05,24,07,52,12.10
2009,05,24,07,53,12.20
2009,05,24,07,54,12.20
2009,05,24,07,55,12.20
2009,05,24,07,56,12.30
2009,05,24,07,57,12.30
2009,05,24,07,58,12.30
2009,05,24,07,59,12.30
2009,05,24,08,00,12.30
2009,05,24,08,01,12.30
2009,05,24,08,02,12.30
2009,05,24,08,03,12.30
2009,05,24,08,04,12.30
2009,05,24,08,05,12.40
2009,05,24,08,06,12.40
2009,05,24,08,07,12.40
2009,05,24,08,08,12.50
2009,05,24,08,09,12.60
2009,05,24,08,10,12.60
2009,05,24,08,11,12.70
2009,05,24,08,12,12.70
2009,05,24,08,13,12.80
2009,05,24,08,14,12.80
2009,05,24,08,15,12.90
2009,05,24,08,16,13.00
2009,05,24,08,17,13.10
2009,05,24,08,18,13.20
2009,05,24,08,19,13.20
2009,05,24,08,20,13.30
2009,05,24,08,21,13.40
2009,05,24,08,22,13.50
2009,05,24,08,23,13.60
2009,05,24,08,24,13.60
2009,05,24,08,25,13.70
2009,05,24,08,26,13.80
2009,05,24,08,27,13.80
2009,05,24,08,28,13.90
2009,05,24,08,29,13.90
2009,05,24,08,30,14.00
2009,05,24,08,31,14.00
2009,05,24,08,32,14.10
2009,05,24,08,33,14.20
2009,05,24,08,34,14.20
2009,05,24,08,35,14.30
2009,05,24,08,36,14.40
2009,05,24,08,37,14.40
2009,05,24,08,38,14.50
2009,05,24,08,39,14.50
2009,05,24,08,40,14.60
2009,05,24,08,41,14.60
2009,05,24,08,42,14.60
2009,05,24,08,43,14.70
2009,05,24,08,44,14.70
2009,05,24,08,45,14.70
2009,05,24,08,46,14.80
2009,05,24,08,47,14.80
2009,05,24,08,48,14.80
2009,05,24,08,49,14.80
2009,05,24,08,50,14.80
2009,05,24,08,51,14.80
2009,05,24,08,52,14.80
2009,05,24,08,53,14.80
2009,05,24,08,54,14.90
2009,05,24,08,55,14.90
2009,05,24,08,56,14.90
2009,05,24,08,57,14.90
2009,05,24,08,58,14.90
2009,05,24,08,59,14.90
2009,05,24,09,00,14.80
2009,05,24,09,01,14.80
2009,05,24,09,02,14.80
2009,05,24,09,03,14.80
2009,05,24,09,04,14.80
2009,05,24,09,05,14.80
2009,05,24,09,06,14.80
2009,05,24,09,07,14.80
2009,05,24,09,08,14.80
2009,05,24,09,09,14.80
2009,05,24,09,10,14.90
2009,05,24,09,11,14.90
2009,05,24,09,12,14.90
2009,05,24,09,13,14.90
2009,05,24,09,14,14.90
2009,05,24,09,15,14.90
2009,05,24,09,16,14.90
2009,05,24,09,17,15.00
2009,05,24,09,18,15.10
2009,05,24,09,19,15.10
2009,05,24,09,20,15.10
2009,05,24,09,21,15.00
2009,05,24,09,22,14.90
2009,05,24,09,23,14.90
2009,05,24,09,24,14.80
2009,05,24,09,25,14.80
2009,05,24,09,26,14.80
2009,05,24,09,27,14.90
2009,05,24,09,28,14.90
2009,05,24,09,29,14.90
2009,05,24,09,30,15.00
2009,05,24,09,31,15.00
2009,05,24,09,32,15.00
2009,05,24,09,33,14.90
2009,05,24,09,34,15.00
2009,05,24,09,35,15.00
2009,05,24,09,36,15.10
2009,05,24,09,37,15.00
2009,05,24,09,38,15.00
2009,05,24,09,39,15.00
2009,05,24,09,40,15.10
2009,05,24,09,41,15.10
2009,05,24,09,42,15.10
2009,05,24,09,43,15.20
2009,05,24,09,44,15.30
2009,05,24,09,45,15.30
2009,05,24,09,46,15.30
2009,05,24,09,47,15.40
2009,05,24,09,48,15.40
2009,05,24,09,49,15.50
2009,05,24,09,50,15.50
2009,05,24,09,51,15.60
2009,05,24,09,52,15.60
2009,05,24,09,53,15.60
2009,05,24,09,54,15.70
2009,05,24,09,55,15.70
2009,05,24,09,56,15.80
2009,05,24,09,57,15.80
2009,05,24,09,58,15.90
2009,05,24,09,59,16.00
2009,05,24,10,00,16.10
2009,05,24,10,01,16.10
2009,05,24,10,02,16.20
2009,05,24,10,03,16.20
2009,05,24,10,04,16.30
2009,05,24,10,05,16.30
2009,05,24,10,06,16.40
2009,05,24,10,07,16.40
2009,05,24,10,08,16.30
2009,05,24,10,09,16.30
2009,05,24,10,10,16.40
2009,05,24,10,11,16.40
2009,05,24,10,12,16.40
2009,05,24,10,13,16.40
2009,05,24,10,14,16.40
2009,05,24,10,15,16.40
2009,05,24,10,16,16.30
2009,05,24,10,17,16.30
2009,05,24,10,18,16.30
2009,05,24,10,19,16.30
2009,05,24,10,20,16.30
2009,05,24,10,21,16.30
2009,05,24,10,22,16.30
2009,05,24,10,23,16.40
2009,05,24,10,24,16.40
2009,05,24,10,25,16.40
2009,05,24,10,26,16.30
2009,05,24,10,27,16.30
2009,05,24,10,28,16.30
2009,05,24,10,29,16.30
2009,05,24,10,30,16.30
2009,05,24,10,31,16.30
2009,05,24,10,32,16.30
2009,05,24,10,33,16.30
2009,05,24,10,34,16.30
2009,05,24,10,35,16.30
2009,05,24,10,36,16.30
2009,05,24,10,37,16.40
2009,05,24,10,38,16.40
2009,05,24,10,39,16.40
2009,05,24,10,40,16.40
2009,05,24,10,41,16.50
2009,05,24,10,42,16.60
2009,05,24,10,43,16.70
2009,05,24,10,44,16.80
2009,05,24,10,45,16.90
2009,05,24,10,46,17.00
2009,05,24,10,47,17.00
2009,05,24,10,48,17.00
2009,05,24,10,49,17.00
2009,05,24,10,50,17.10
2009,05,24,10,51,17.00
2009,05,24,10,52,17.00
2009,05,24,10,53,16.90
2009,05,24,10,54,16.90
2009,05,24,10,55,16.90
2009,05,24,10,56,16.90
2009,05,24,10,57,17.00
2009,05,24,10,58,16.90
2009,05,24,10,59,16.90
2009,05,24,11,00,16.80
2009,05,24,11,01,16.70
2009,05,24,11,02,16.70
2009,05,24,11,03,16.70
2009,05,24,11,04,16.60
2009,05,24,11,05,16.70
2009,05,24,11,06,16.70
2009,05,24,11,07,16.70
2009,05,24,11,08,16.80
2009,05,24,11,09,16.80
2009,05,24,11,10,16.80
2009,05,24,11,11,16.70
2009,05,24,11,12,16.80
2009,05,24,11,13,16.80
2009,05,24,11,14,16.70
2009,05,24,11,15,16.70
2009,05,24,11,16,16.70
2009,05,24,11,17,16.80
2009,05,24,11,18,16.90
2009,05,24,11,19,16.90
2009,05,24,11,20,16.90
2009,05,24,11,21,16.90
2009,05,24,11,22,16.90
2009,05,24,11,23,16.80
2009,05,24,11,24,16.80
2009,05,24,11,25,16.80
2009,05,24,11,26,16.80
2009,05,24,11,27,16.90
2009,05,24,11,28,16.90
2009,05,24,11,29,16.90
2009,05,24,11,30,17.00
2009,05,24,11,31,17.00
2009,05,24,11,32,16.90
2009,05,24,11,33,16.90
2009,05,24,11,34,16.80
2009,05,24,11,35,16.80
2009,05,24,11,36,16.80
2009,05,24,11,37,16.90
2009,05,24,11,38,17.00
2009,05,24,11,39,17.10
2009,05,24,11,40,17.20
2009,05,24,11,41,17.30
2009,05,24,11,42,17.40
2009,05,24,11,43,17.50
2009,05,24,11,44,17.60
2009,05,24,11,45,17.70
2009,05,24,11,46,17.70
2009,05,24,11,47,17.60
2009,05,24,11,48,17.50
2009,05,24,11,49,17.50
2009,05,24,11,50,17.40
2009,05,24,11,51,17.40
2009,05,24,11,52,17.50
2009,05,24,11,53,17.50
2009,05,24,11,54,17.50
2009,05,24,11,55,17.50
2009,05,24,11,56,17.50
2009,05,24,11,57,17.50
2009,05,24,11,58,17.50
2009,05,24,11,59,17.50
2009,05,24,12,00,17.60
2009,05,24,12,01,17.60
2009,05,24,12,02,17.50
2009,05,24,12,03,17.40
2009,05,24,12,04,17.30
2009,05,24,12,05,17.30
2009,05,24,12,06,17.30
2009,05,24,12,07,17.40
2009,05,24,12,08,17.50
2009,05,24,12,09,17.50
2009,05,24,12,10,17.50
2009,05,24,12,11,17.60
2009,05,24,12,12,17.70
2009,05,24,12,13,17.70
2009,05,24,12,14,17.80
2009,05,24,12,15,17.90
2009,05,24,12,16,17.90
2009,05,24,12,17,17.90
2009,05,24,12,18,17.90
2009,05,24,12,19,17.90
2009,05,24,12,20,17.90
2009,05,24,12,21,18.00
2009,05,24,12,22,17.90
2009,05,24,12,23,17.90
2009,05,24,12,24,17.90
2009,05,24,12,25,18.00
2009,05,24,12,26,18.10
2009,05,24,12,27,18.20
2009,05,24,12,28,18.20
2009,05,24,12,29,18.20
2009,05,24,12,30,18.20
2009,05,24,12,31,18.20
2009,05,24,12,32,18.20
2009,05,24,12,33,18.20
2009,05,24,12,34,18.10
2009,05,24,12,35,17.90
2009,05,24,12,36,17.80
2009,05,24,12,37,17.80
2009,05,24,12,38,17.80
2009,05,24,12,39,17.80
2009,05,24,12,40,17.80
2009,05,24,12,41,17.90
2009,05,24,12,42,18.00
2009,05,24,12,43,18.10
2009,05,24,12,44,18.10
2009,05,24,12,45,18.20
2009,05,24,12,46,18.20
2009,05,24,12,47,18.00
2009,05,24,12,48,17.90
2009,05,24,12,49,17.90
2009,05,24,12,50,17.90
2009,05,24,12,51,17.90
2009,05,24,12,52,18.00
2009,05,24,12,53,18.10
2009,05,24,12,54,18.20
2009,05,24,12,55,18.20
2009,05,24,12,56,18.20
2009,05,24,12,57,18.20
2009,05,24,12,58,18.30
2009,05,24,12,59,18.30
2009,05,24,13,00,18.40
2009,05,24,13,01,18.50
2009,05,24,13,02,18.50
2009,05,24,13,03,18.60
2009,05,24,13,04,18.60
2009,05,24,13,05,18.60
2009,05,24,13,06,18.70
2009,05,24,13,07,18.70
2009,05,24,13,08,18.70
2009,05,24,13,09,18.60
2009,05,24,13,10,18.40
2009,05,24,13,11,18.30
2009,05,24,13,12,18.30
2009,05,24,13,13,18.20
2009,05,24,13,14,18.20
2009,05,24,13,15,18.20
2009,05,24,13,16,18.00
2009,05,24,13,17,17.90
2009,05,24,13,18,17.90
2009,05,24,13,19,17.80
2009,05,24,13,20,17.90
2009,05,24,13,21,18.00
2009,05,24,13,22,18.10
2009,05,24,13,23,18.20
2009,05,24,13,24,18.20
2009,05,24,13,25,18.30
2009,05,24,13,26,18.30
2009,05,24,13,27,18.40
2009,05,24,13,28,18.50
2009,05,24,13,29,18.50
2009,05,24,13,30,18.40
2009,05,24,13,31,18.40
2009,05,24,13,32,18.40
2009,05,24,13,33,18.40
2009,05,24,13,34,18.40
2009,05,24,13,35,18.40
2009,05,24,13,36,18.50
2009,05,24,13,37,18.50
2009,05,24,13,38,18.60
2009,05,24,13,39,18.50
2009,05,24,13,40,18.50
2009,05,24,13,41,18.50
2009,05,24,13,42,18.50
2009,05,24,13,43,18.50
2009,05,24,13,44,18.50
2009,05,24,13,45,18.50
2009,05,24,13,46,18.50
2009,05,24,13,47,18.60
2009,05,24,13,48,18.70
2009,05,24,13,49,18.70
2009,05,24,13,50,18.90
2009,05,24,13,51,18.90
2009,05,24,13,52,18.90
2009,05,24,13,53,18.80
2009,05,24,13,54,18.80
2009,05,24,13,55,18.80
2009,05,24,13,56,18.90
2009,05,24,13,57,18.90
2009,05,24,13,58,18.90
2009,05,24,13,59,18.90
2009,05,24,14,00,18.90
2009,05,24,14,01,18.90
2009,05,24,14,02,18.90
2009,05,24,14,03,18.90
2009,05,24,14,04,18.80
2009,05,24,14,05,18.80
2009,05,24,14,06,18.80
2009,05,24,14,07,18.80
2009,05,24,14,08,18.80
2009,05,24,14,09,18.80
2009,05,24,14,10,18.80
2009,05,24,14,11,18.80
2009,05,24,14,12,18.90
2009,05,24,14,13,18.90
2009,05,24,14,14,19.00
2009,05,24,14,15,19.10
2009,05,24,14,16,19.10
2009,05,24,14,17,19.20
2009,05,24,14,18,19.30
2009,05,24,14,19,19.40
2009,05,24,14,20,19.40
2009,05,24,14,21,19.40
2009,05,24,14,22,19.40
2009,05,24,14,23,19.40
2009,05,24,14,24,19.30
2009,05,24,14,25,19.20
2009,05,24,14,26,19.00
2009,05,24,14,27,18.90
2009,05,24,14,28,18.90
2009,05,24,14,29,18.90
2009,05,24,14,30,19.00
2009,05,24,14,31,19.10
2009,05,24,14,32,19.30
2009,05,24,14,33,19.40
2009,05,24,14,34,19.60
2009,05,24,14,35,19.70
2009,05,24,14,36,19.70
2009,05,24,14,37,19.80
2009,05,24,14,38,19.90
2009,05,24,14,39,19.90
2009,05,24,14,40,20.00
2009,05,24,14,41,20.10
2009,05,24,14,42,20.20
2009,05,24,14,43,20.20
2009,05,24,14,44,20.30
2009,05,24,14,45,20.40
2009,05,24,14,46,20.50
2009,05,24,14,47,20.60
2009,05,24,14,48,20.60
2009,05,24,14,49,20.70
2009,05,24,14,50,20.70
2009,05,24,14,51,20.70
2009,05,24,14,52,20.70
2009,05,24,14,53,20.70
2009,05,24,14,54,20.80
2009,05,24,14,55,20.80
2009,05,24,14,56,20.70
2009,05,24,14,57,20.70
2009,05,24,14,58,20.70
2009,05,24,14,59,20.80
2009,05,24,15,00,20.80
2009,05,24,15,01,20.80
2009,05,24,15,02,20.90
2009,05,24,15,03,20.90
2009,05,24,15,04,20.90
2009,05,24,15,05,20.90
2009,05,24,15,06,20.90
2009,05,24,15,07,20.90
2009,05,24,15,08,20.90
2009,05,24,15,09,21.00
2009,05,24,15,10,21.00
2009,05,24,15,11,21.10
2009,05,24,15,12,21.10
2009,05,24,15,13,21.10
2009,05,24,15,14,21.10
2009,05,24,15,15,21.10
2009,05,24,15,16,21.10
2009,05,24,15,17,21.20
2009,05,24,15,18,21.20
2009,05,24,15,19,21.20
2009,05,24,15,20,21.30
2009,05,24,15,21,21.30
2009,05,24,15,22,21.40
2009,05,24,15,23,21.50
2009,05,24,15,24,21.60
2009,05,24,15,25,21.60
2009,05,24,15,26,21.60
2009,05,24,15,27,21.60
2009,05,24,15,28,21.60
2009,05,24,15,29,21.60
2009,05,24,15,30,21.60
2009,05,24,15,31,21.60
2009,05,24,15,32,21.60
2009,05,24,15,33,21.60
2009,05,24,15,34,21.60
2009,05,24,15,35,21.60
2009,05,24,15,36,21.60
2009,05,24,15,37,21.60
2009,05,24,15,38,21.50
2009,05,24,15,39,21.40
2009,05,24,15,40,21.40
2009,05,24,15,41,21.30
2009,05,24,15,42,21.30
2009,05,24,15,43,21.20
2009,05,24,15,44,21.20
2009,05,24,15,45,21.20
2009,05,24,15,46,21.20
2009,05,24,15,47,21.20
2009,05,24,15,48,21.20
2009,05,24,15,49,21.20
2009,05,24,15,50,21.20
2009,05,24,15,51,21.20
2009,05,24,15,52,21.20
2009,05,24,15,53,21.30
2009,05,24,15,54,21.30
2009,05,24,15,55,21.30
2009,05,24,15,56,21.30
2009,05,24,15,57,21.30
2009,05,24,15,58,21.30
2009,05,24,15,59,21.30
2009,05,24,16,00,21.30
2009,05,24,16,01,21.30
2009,05,24,16,02,21.30
2009,05,24,16,03,21.30
2009,05,24,16,04,21.30
2009,05,24,16,05,21.30
2009,05,24,16,06,21.20
2009,05,24,16,07,21.20
2009,05,24,16,08,21.10
2009,05,24,16,09,21.10
2009,05,24,16,10,21.00
2009,05,24,16,11,21.00
2009,05,24,16,12,20.90
2009,05,24,16,13,20.90
2009,05,24,16,14,20.90
2009,05,24,16,15,20.90
2009,05,24,16,16,20.90
2009,05,24,16,17,20.80
2009,05,24,16,18,20.80
2009,05,24,16,19,20.80
2009,05,24,16,20,20.70
2009,05,24,16,21,20.70
2009,05,24,16,22,20.70
2009,05,24,16,23,20.70
2009,05,24,16,24,20.70
2009,05,24,16,25,20.70
2009,05,24,16,26,20.70
2009,05,24,16,27,20.60
2009,05,24,16,28,20.60
2009,05,24,16,29,20.60
2009,05,24,16,30,20.60
2009,05,24,16,31,20.60
2009,05,24,16,32,20.60
2009,05,24,16,33,20.60
2009,05,24,16,34,20.60
2009,05,24,16,35,20.50
2009,05,24,16,36,20.50
2009,05,24,16,37,20.50
2009,05,24,16,38,20.50
2009,05,24,16,39,20.50
2009,05,24,16,40,20.50
2009,05,24,16,41,20.40
2009,05,24,16,42,20.40
2009,05,24,16,43,20.40
2009,05,24,16,44,20.40
2009,05,24,16,45,20.40
2009,05,24,16,46,20.40
2009,05,24,16,47,20.40
2009,05,24,16,48,20.40
2009,05,24,16,49,20.40
2009,05,24,16,50,20.40
2009,05,24,16,51,20.40
2009,05,24,16,52,20.30
2009,05,24,16,53,20.30
2009,05,24,16,54,20.20
2009,05,24,16,55,20.20
2009,05,24,16,56,20.20
2009,05,24,16,57,20.10
2009,05,24,16,58,20.10
2009,05,24,16,59,20.00
2009,05,24,17,00,19.90
2009,05,24,17,01,20.00
2009,05,24,17,02,20.10
2009,05,24,17,03,20.10
2009,05,24,17,04,20.10
2009,05,24,17,05,20.10
2009,05,24,17,06,20.10
2009,05,24,17,07,20.00
2009,05,24,17,08,19.90
2009,05,24,17,09,19.90
2009,05,24,17,10,19.90
2009,05,24,17,11,19.90
2009,05,24,17,12,19.80
2009,05,24,17,13,19.80
2009,05,24,17,14,19.80
2009,05,24,17,15,19.70
2009,05,24,17,16,19.70
2009,05,24,17,17,19.70
2009,05,24,17,18,19.60
2009,05,24,17,19,19.60
2009,05,24,17,20,19.60
2009,05,24,17,21,19.60
2009,05,24,17,22,19.50
2009,05,24,17,23,19.50
2009,05,24,17,24,19.50
2009,05,24,17,25,19.40
2009,05,24,17,26,19.40
2009,05,24,17,27,19.40
2009,05,24,17,28,19.40
2009,05,24,17,29,19.30
2009,05,24,17,30,19.30
2009,05,24,17,31,19.30
2009,05,24,17,32,19.30
2009,05,24,17,33,19.20
2009,05,24,17,34,19.20
2009,05,24,17,35,19.20
2009,05,24,17,36,19.10
2009,05,24,17,37,19.10
2009,05,24,17,38,19.10